Location: Marcé
(47.5801°N, 0.3280°W)
Time: 07:09:01
(UTC+02:00)

deb Agena D - Visible Passes

Search period start: 08 June 2023 00:00
Search period end: 18 June 2023 00:00
Orbit: 855 x 960 km, 99.0° (Epoch: 04 June)

Date Brightness Start Highest point End Pass type
(mag) Time Alt. Az. Time Alt. Az. Time Alt. Az.
08 Jun ? 01:34:34 10° N 01:39:09 27° WNW 01:43:42 10° WSW visible
08 Jun ? 23:56:59 10° NNE 00:02:29 58° ESE 00:06:15 20° S visible
09 Jun ? 01:39:31 10° N 01:43:58 25° WNW 01:48:22 10° WSW visible
10 Jun ? 00:01:49 10° NNE 00:07:21 63° ESE 00:11:12 20° S visible
10 Jun ? 01:44:29 10° N 01:48:45 23° WNW 01:53:00 10° WSW visible
11 Jun ? 00:06:39 10° NNE 00:12:12 69° ESE 00:16:09 20° S visible
11 Jun ? 01:49:27 10° N 01:53:33 22° WNW 01:57:37 10° WSW visible
11 Jun ? 22:32:38 10° ENE 22:34:15 11° E 22:35:50 10° ESE visible
12 Jun ? 00:11:30 10° NNE 00:17:04 76° ESE 00:21:05 19° S visible
12 Jun ? 01:54:26 10° NNW 01:58:20 20° WNW 02:02:12 10° WSW visible
12 Jun ? 22:36:54 10° ENE 22:39:10 12° E 22:41:26 10° ESE visible
13 Jun ? 00:16:20 10° NNE 00:21:55 82° ESE 00:26:02 19° SSW visible
13 Jun ? 01:59:25 10° NNW 02:03:06 19° NW 02:06:46 10° W visible
13 Jun ? 22:41:20 10° ENE 22:44:05 14° E 22:46:50 10° ESE visible
14 Jun ? 00:21:11 10° NNE 00:26:45 89° ESE 00:30:58 18° SSW visible
14 Jun ? 02:04:24 10° NNW 02:07:52 17° NW 02:11:19 10° W visible
14 Jun ? 22:45:51 10° NE 22:49:00 15° E 22:52:08 10° ESE visible
15 Jun ? 00:26:01 10° NNE 00:31:35 84° WNW 00:35:53 17° SSW visible
15 Jun ? 02:09:26 10° NNW 02:12:38 16° NW 02:15:50 10° W visible
15 Jun ? 22:50:25 10° NE 22:53:54 17° E 22:57:23 10° SE visible
16 Jun ? 00:30:53 10° NNE 00:36:25 78° WNW 00:40:49 17° SSW visible
16 Jun ? 02:14:28 10° NNW 02:17:23 15° NW 02:20:18 10° W visible
16 Jun ? 22:55:02 10° NE 22:58:48 18° E 23:02:32 10° SE visible
17 Jun ? 00:35:43 10° N 00:41:14 72° WNW 00:45:44 16° SSW visible
17 Jun ? 02:19:32 10° NNW 02:22:08 14° NW 02:24:44 10° W visible
17 Jun ? 22:59:41 10° NE 23:03:42 20° E 23:07:27 11° SE visible
